Location: Maccacari
(45.1333°N, 11.1333°E)
Time: 05:45:09
(UTC+00:00)

SR - Pass Details

Date: 29 January 2021
Orbit: 573 x 882 km, 66.7° (Epoch: 06 March)

Event Time Altitude Azimuth Distance (km) Brightness Sun altitude
Exits shadow 03:08:52 16° 27° (NNE) 1,944 ? -37.0°
Drops below altitude 10° 03:09:53 10° 29° (NNE) 2,329 ? -36.8°
Sets 03:12:26 0° 32° (NNE) 3,310 ? -36.4°
